Historyczne dane pomiarowe

Dodano dane terminowe – wersja testowa.

Dane z okresu 1951-2019

Wersja bazy: 1.34 [2019-03-16, lista zmian], aktualizacja planowana na 2019-04-15

Dane meteo z obszaru Polski uzyskane na podstawie danych udostępnionych przez Instytut Meteorologii i Gospodarki Wodnej – Państwowy Instytut Badawczy.

 

Wybierz Datę:    

       

TemperaturaWilgotnośćWiatrCiśnienieOpadyŚniegCzas trwania zjawisk
 Stacja t tx tn tng RH VA  wxwx mslp ppp RRR   cm mm wxwxwxwxwxwxwx
2019-07-03 16.5 22.5 10.4 6.8-- 2.7----- 0.0------------
2019-07-02 21.0 27.0 16.3 14.2-- 5.7----- 0.0------------
2019-07-01 24.8 33.0 16.5 14.1-- 5.0----- 0.0------------
2019-06-30 26.3 37.0 14.0 10.3-- 0.0----- 0.0------------
2019-06-29 21.9 29.8 11.6 9.2-- 3.3----- 0.0------------
2019-06-28 18.5 25.3 9.4 7.5-- 6.0----- 0.0------------
2019-06-27 24.3 35.0 19.1 18.5-- 1.3----- 0.0------------
2019-06-26 29.6 37.3 19.7 16.2-- 3.0----- 0.9------------
2019-06-25 24.8 33.3 15.7 12.9-- 4.0----- 0.0------------
2019-06-24 21.3 29.6 11.5 9.5-- 3.0----- 0.0------------
2019-06-23 20.0 25.9 13.7 13.2-- 5.0----- 0.0------------
2019-06-22 20.9 25.8 14.8 14.2-- 3.7----- 0.0------------
2019-06-21 21.8 27.0 16.0 14.3-- 5.7----- 4.4------------
2019-06-20 24.4 32.3 17.0 15.1-- 5.0----- 1.2------------
2019-06-19 23.8 31.3 14.8 12.7-- 2.7----- 0.0------------
2019-06-18 20.7 27.2 13.5 11.1-- 5.3----- 0.0------------
2019-06-17 19.6 25.8 11.6 10.5-- 3.0----- 0.0------------
2019-06-16 21.3 25.7 18.5 17.8-- 5.7----- 0.0------------
2019-06-15 25.8 34.8 18.9 18.3-- 5.7----- 8.2------------
2019-06-14 23.0 28.8 15.0 12.7-- 3.7----- 0.0------------
2019-06-13 22.9 30.4 18.2 17.1-- 6.7----- 0.8------------
2019-06-12 27.1 33.6 18.8 14.7-- 2.0----- 0.0------------
2019-06-11 27.0 34.2 18.4 15.7-- 1.0----- 0.0------------
2019-06-10 24.0 31.6 15.3 14.5-- 6.0----- 0.0------------
2019-06-09 18.1 25.8 7.4 4.4-- 3.0----- 0.0------------
2019-06-08 19.6 23.2 15.2 11.5-- 5.3----- 0.0------------
2019-06-07 20.8 25.2 16.8 13.7-- 6.7----- 0.0------------
2019-06-06 22.2 28.3 16.2 14.4-- 4.3----- 0.0------------
2019-06-05 23.5 29.4 15.9 12.3-- 3.7----- 0.0------------
2019-06-04 23.5 29.8 14.6 10.1-- 1.7----- 0.0------------
2019-06-03 22.6 28.8 14.6 10.3-- 1.0----- 0.0------------
2019-06-02 20.9 27.8 13.8 9.7-- 4.0----- 0.0------------
2019-06-01 19.1 25.1 13.1 10.0-- 5.0----- 0.0------------
2019-05-31 15.7 23.2 6.9 3.4-- 6.0----- 0.0------------
2019-05-30 13.2 18.3 6.2 4.3-- 2.3----- 0.0------------
2019-05-29 12.4 16.7 8.8 7.7-- 6.0----- 0.0------------
2019-05-28 16.0 20.9 13.6 13.3-- 8.0----- 9.1------------
2019-05-27 18.3 24.6 11.0 7.6-- 6.0----- 11.2------------
2019-05-26 15.3 22.2 7.6 3.6-- 4.7----- 0.0------------
2019-05-25 15.9 21.7 9.2 5.8-- 5.0----- 0.0------------
2019-05-24 14.9 19.8 10.2 2.1-- 5.3----- 0.0------------
2019-05-23 12.8 15.2 10.6 9.2-- 7.7----- 0.0------------
2019-05-22 16.1 19.2 14.4 12.4-- 8.0----- 8.4------------
2019-05-21 16.3 23.4 10.1 5.3-- 6.3----- 6.0------------
2019-05-20 17.0 21.8 11.8 7.7-- 6.3----- 0.0------------
2019-05-19 17.0 23.8 10.3 6.8-- 5.0----- 0.7------------
2019-05-18 16.2 22.8 10.3 6.0-- 2.3----- 0.0------------
2019-05-17 14.1 18.8 9.0 5.8-- 6.7----- 0.0------------
2019-05-16 10.5 13.2 7.6 5.0-- 8.0----- 0.2------------
2019-05-15 7.6 10.2 4.8 2.1-- 8.0----- 4.5------------
2019-05-14 6.8 10.5 2.1 -3.2-- 7.7----- 3.4------------
2019-05-13 9.2 13.7 6.0 1.4-- 6.7----- 0.0------------
2019-05-12 9.5 14.0 5.5 4.2-- 7.7----- 15.2------------
2019-05-11 11.5 18.4 5.5 0.4-- 6.7----- 0.9------------
2019-05-10 9.3 17.7 3.1 -1.1-- 8.0----- 0.7------------
2019-05-09 11.1 15.0 6.5 -1.6-- 8.0----- 4.5------------
2019-05-08 9.1 17.4 -0.1 -5.5-- 4.0----- 0.0------------
2019-05-07 8.4 12.1 3.7 -2.3-- 4.3----- 0.0------------
2019-05-06 7.9 13.7 2.6 -1.6-- 7.7----- 0.0------------
2019-05-05 6.2 9.7 2.1 -1.5-- 6.3----- 0.0------------
174.5 ms

 

Źródłem pochodzenia danych jest Instytut Meteorologii i Gospodarki Wodnej – Państwowy Instytut Badawczy. Dane Instytutu Meteorologii i Gospodarki Wodnej – Państwowego Instytutu Badawczego zostały przetworzone.

Dane źródłowe można odnaleźć na stronie https://dane.imgw.pl